McAlester, OK

4:29 PM CDT on April 23, 2018 (GMT -0500)
McAlester Regional

Weather History for KMLC - December, 2013

Change the Weather History Date:

Sunday, December 29, 2013

  Actual Average Record
Temperature  
Mean Temperature 35 °F -  
Max Temperature 44 °F 50 °F 74 °F (1964)
Min Temperature 26 °F 30 °F 4 °F (1983)
Degree Days  
Heating Degree Days 30    
Moisture  
Dew Point 26 °F    
Average Humidity 71    
Maximum Humidity 87    
Minimum Humidity 60    
Precipitation  
Precipitation 0.00 in - - ()
Sea Level Pressure  
Sea Level Pressure 30.15 in    
Wind  
Wind Speed 8 mph (North)    
Max Wind Speed 23 mph    
Max Gust Speed 34 mph    
Visibility 10 miles    
Events Snow    
Averages and records for this station are not official NWS values.
T = Trace of Precipitation, MM = Missing Value Source: NWS Daily Summary

Daily Weather History Graph

Daily Weather History Graph

Search for Another Location

Airport or City:

Astronomy

Dec. 29, 2013 Rise Set
Actual Time 7:30 AM CST 5:20 PM CST
Civil Twilight 7:02 AM CST 5:48 PM CST
Nautical Twilight 6:30 AM CST 6:20 PM CST
Astronomical Twilight 5:59 AM CST 6:51 PM CST
Moon 4:18 AM CST (12/29) 2:56 PM CST (12/29)
Length of Visible Light 10h 46m
Length of Day
9h 50m
Waning Crescent, 11% of the Moon is Illuminated
Dec 29
Waning Crescent
Jan 1
New
Jan 7
First Quarter
Jan 15
Full
Jan 23
Last Quarter

Hourly Weather History & Observations

Time (CST) Temp. Windchill Dew Point Humidity Pressure Visibility Wind Dir Wind Speed Gust Speed Precip Events Conditions
12:53 AM 44.1 °F 42.5 °F 35.1 °F 71% 29.95 in 10.0 mi SSW 3.5 mph - N/A   Clear
1:53 AM 43.0 °F 40.3 °F 35.1 °F 74% 29.96 in 10.0 mi SSW 4.6 mph - N/A   Mostly Cloudy
2:53 AM 43.0 °F 40.3 °F 35.1 °F 74% 29.96 in 10.0 mi South 4.6 mph - N/A   Scattered Clouds
3:53 AM 41.0 °F 37.1 °F 34.0 °F 76% 29.95 in 10.0 mi South 5.8 mph - N/A   Partly Cloudy
4:53 AM 37.9 °F - 33.1 °F 83% 29.97 in 10.0 mi Calm Calm - N/A   Scattered Clouds
5:53 AM 39.9 °F - 36.0 °F 86% 29.99 in 10.0 mi Calm Calm - N/A   Overcast
6:53 AM 44.1 °F 40.1 °F 36.0 °F 73% 30.03 in 10.0 mi NNW 6.9 mph - N/A   Overcast
7:05 AM 42.8 °F 39.3 °F 35.6 °F 76% 30.03 in 10.0 mi North 5.8 mph - N/A   Overcast
7:53 AM 39.9 °F - 35.1 °F 83% 30.04 in 10.0 mi Calm Calm - N/A   Mostly Cloudy
8:09 AM 39.2 °F - 35.6 °F 87% 30.05 in 10.0 mi Calm Calm - N/A   Mostly Cloudy
8:53 AM 42.1 °F 34.5 °F 35.1 °F 76% 30.10 in 10.0 mi North 15.0 mph 27.6 mph N/A   Overcast
9:53 AM 36.0 °F 24.4 °F 28.0 °F 73% 30.17 in 10.0 mi North 23.0 mph 34.5 mph 0.00 in Snow Light Snow
10:53 AM 35.1 °F 25.5 °F 27.0 °F 72% 30.19 in 10.0 mi North 15.0 mph - 0.00 in   Overcast
11:53 AM 33.1 °F 22.6 °F 25.0 °F 72% 30.21 in 10.0 mi North 16.1 mph 23.0 mph N/A   Overcast
12:53 PM 32.0 °F 19.5 °F 21.0 °F 64% 30.21 in 10.0 mi North 21.9 mph 26.5 mph N/A   Overcast
1:05 PM 33.8 °F 23.5 °F 21.2 °F 60% 30.19 in 10.0 mi North 16.1 mph - N/A   Overcast
1:53 PM 32.0 °F 20.5 °F 19.9 °F 61% 30.19 in 10.0 mi North 18.4 mph 26.5 mph N/A   Overcast
2:53 PM 30.9 °F 21.7 °F 19.9 °F 64% 30.22 in 10.0 mi North 11.5 mph 21.9 mph N/A   Overcast
3:53 PM 28.9 °F 17.7 °F 18.0 °F 64% 30.24 in 10.0 mi North 15.0 mph 23.0 mph N/A   Overcast
4:08 PM 28.4 °F 16.2 °F 17.6 °F 64% 30.23 in 10.0 mi North 17.3 mph 21.9 mph N/A   Overcast
4:53 PM 28.9 °F 17.3 °F 18.0 °F 64% 30.25 in 10.0 mi North 16.1 mph - N/A   Overcast
5:53 PM 28.0 °F 16.5 °F 18.0 °F 66% 30.28 in 10.0 mi North 15.0 mph - N/A   Overcast
6:53 PM 27.0 °F 17.3 °F 17.1 °F 66% 30.30 in 10.0 mi North 10.4 mph - N/A   Overcast
7:53 PM 27.0 °F 17.3 °F 17.1 °F 66% 30.30 in 10.0 mi North 10.4 mph - N/A   Overcast
8:53 PM 27.0 °F 15.6 °F 17.1 °F 66% 30.29 in 10.0 mi North 13.8 mph - N/A   Overcast
9:53 PM 27.0 °F 17.3 °F 17.1 °F 66% 30.30 in 10.0 mi NNE 10.4 mph - N/A   Overcast
10:53 PM 26.1 °F 15.6 °F 16.0 °F 66% 30.30 in 10.0 mi North 11.5 mph - N/A   Mostly Cloudy
11:53 PM 26.1 °F 14.5 °F 17.1 °F 69% 30.28 in 10.0 mi North 13.8 mph - N/A   Partly Cloudy